Regional Weather Roundup
Issued by NWS

Home | Current Version | Previous Version | Text Only | Print | Product List | Glossary Off
Versions: 1 2 3 4 5 6 7 8 9 10 11 12 13 14 15 16 17 18 19 20 21 22 23 24 25 26 27 28 29 30 31 32 33 34 35 36 37 38 39 40 41 42 43 44 45 46 47 48 49 50

000
ASUS43 KMPX 242201
RWRMN
WEATHER ROUNDUP FOR MINNESOTA
NATIONAL WEATHER SERVICE TWIN CITIES/CHANHASSEN MN
400 PM CST SAT FEB 24 2018


NOTE: "FAIR" INDICATES FEW OR NO CLOUDS BELOW 12,000 FEET WITH NO
SIGNIFICANT WEATHER AND/OR OBSTRUCTIONS TO VISIBILITY. N/A MEANS
CURRENT SKY AND/OR WEATHER CONDITIONS ARE NOT AVAILABLE.

MNZ060>063-068>070-242300-
   Twin Cities Metro

CITY           SKY/WX    TMP DP  RH WIND       PRES   REMARKS
TWIN CITIES    SNOW      27  26  96 NE12G21   29.72F VSB 1/2 WCI  17
ST PAUL        SNOW      27  25  92 NE10      29.75F VSB 1/2 WCI  17
CRYSTAL        SNOW      26  23  88 NE8       29.74F VSB 1/4 WCI  18
BLAINE         LGT SNOW  28  25  86 NE7       29.76F VSB 3/4 WCI  21
LAKEVILLE      LGT SNOW  25  25 100 NE12      29.72F WCI  14
EDEN PRAIRIE   SNOW      26  23  88 NE13      29.70F VSB 1/4 WCI  15
SOUTH ST PAUL  LGT SNOW  28  27  94 NE6       29.72F VSB 3/4 WCI  22
LAKE ELMO      LGT SNOW  28  27  93 NE10      29.74F WCI  19
$$
MNZ001>005-007-008-013>017-022>024-027-028-242300-
   Northwest Minnesota

CITY           SKY/WX    TMP DP  RH WIND       PRES   REMARKS
BEMIDJI        CLOUDY    19   9  64 E6        29.81F WCI  11
HALLOCK        FAIR      16  10  79 S14       29.82F WCI   1
ROSEAU         FAIR      23  10  58 SW6       29.84F WCI  16
WARROAD        FAIR      27   9  46 CALM      29.84F
THIEF RVR FALL CLOUDY    21  11  65 S6        29.82F WCI  13
CROOKSTON      FAIR      16   9  73 S5        29.83F WCI   9
FOSSTON        FAIR      25  12  58 SE7       29.81F WCI  17
DETROIT LAKES  LGT SNOW  21  14  73 E6        29.77F WCI  14
MOORHEAD       LGT SNOW  14  10  85 N3        29.79F
PARK RAPIDS    CLOUDY    21  11  65 E6        29.78F WCI  13
MAHNOMEN       LGT SNOW  21  14  73 SE5       29.80F WCI  15
$$
MNZ006-009>011-018-025>026-242300-
   North Central Minnesota

CITY           SKY/WX    TMP DP  RH WIND       PRES   REMARKS
BAUDETTE       FAIR      24   8  50 S7        29.85F WCI  16
FLAG ISLAND    FAIR      19  10  68 SE5       29.84F WCI  13
INTL FALLS     FAIR      28  10  46 SE7       29.88F WCI  21
WASKISH        PTSUNNY   25   9  50 SE6       29.87F WCI  18
LONGVILLE      PTSUNNY   23  10  58 NE7       29.81F WCI  15
GRAND RAPIDS   CLOUDY    25  11  55 VRB5      29.85F WCI  19
CRANE LAKE     FAIR      27  12  54 CALM      29.92F
ORR            FAIR      25   9  50 E5        29.85F WCI  19
COOK             N/A     27  12  54 E5        29.88F WCI  21
WALKER         CLOUDY    19   8  61 E7        29.81F WCI  10
$$
MNZ012-019>021-037-242300-
   Northeast Minnesota

CITY           SKY/WX    TMP DP  RH WIND       PRES   REMARKS
DULUTH         CLOUDY    24  16  71 E15       29.83F WCI  11
ELY            FAIR      25  14  63 SE7       29.90F WCI  17
HIBBING        PTSUNNY   25   9  50 E9        29.85F WCI  15
EVELETH        FAIR      27   9  46 E7        29.88F WCI  19
DULUTH HARBOR  FAIR      25  21  86 NE20      29.89F WCI  11
TWO HARBORS    FAIR      28  19  69 NE10      29.88F WCI  19
SILVER BAY     FAIR      25  19  80 NE8       29.92F WCI  16
GRAND MARAIS     N/A     25  17  72 NE6       30.01F WCI  18
G MARAIS ARPRT FAIR      21   9  58 CALM      29.94F
$$
MNZ029>031-032-039>041-046>048-054>057-064-242300-
   West Central Minnesota

CITY           SKY/WX    TMP DP  RH WIND       PRES   REMARKS
FERGUS FALLS   LGT SNOW  19  16  86 E12       29.73F WCI   7
WHEATON        LGT SNOW  18  16  93 N10       29.72F VSB 3/4 WCI   6
MORRIS         LGT SNOW  21  21 100 NE14      29.65F VSB 3/4 WCI   8
ALEXANDRIA     LGT SNOW  21  18  88 E16       29.69F VSB 3/4 WCI   7
ELBOW LAKE     LGT SNOW  22  20  93 NE10G17   29.71F VSB 3/4 WCI  11
WADENA         LGT SNOW  19  16  86 NE8       29.76F VSB 3/4 WCI   9
GLENWOOD       SNOW      21  19  93 NE17      29.67F VSB 1/2 WCI   7
APPLETON       SNOW      23  21  93 SE3       29.69F VSB 1/2
BENSON         SNOW      23  19  86 E15G21    29.68F VSB 1/2 WCI  10
MADISON        SNOW      18  14  86 W5        29.69F VSB 1/4 WCI  11
WILLMAR        CLOUDY    23  21  93 E15G24    29.69F VSB 1/2 WCI  10
$$
MNZ033>034-036-042>043-049>051-058-059-242300-
   Central Minnesota

CITY           SKY/WX    TMP DP  RH WIND       PRES   REMARKS
ST CLOUD       LGT SNOW  23  21  92 E13       29.74F VSB 1   WCI  11
SAUK CENTRE    SNOW      23  21  91 E15G22    29.70F VSB 1/2 WCI  10
PAYNESVILLE    SNOW      24  23  96 NE13      29.70F VSB 1/4 WCI  12
AITKIN         FAIR      27   9  46 NE8       29.80F WCI  18
PINE RIVER     FLURRIES  21  10  63 E3        29.85F
BRAINERD       CLOUDY    25  11  55 NE8       29.79F WCI  16
STAPLES        LGT SNOW  19  16  86 NE6       29.77F WCI  11
LONG PRAIRIE   LGT SNOW  23  21  93 N10       29.73F WCI  12
LITTLE FALLS   FLURRIES  28  18  64 E7        29.76  WCI  21
LITCHFIELD     HVY SNOW  25  25 100 E15       29.68F VSB 1/4 WCI  12
BUFFALO        HVY SNOW  25  22  91 NE10      29.75F VSB 1/4 WCI  15
MAPLE LAKE     HVY SNOW  25  23  93 E15       29.74F VSB<1/4 WCI  12
HUTCHINSON     SNOW      25  23  93 NE16      29.69F VSB 1/2 WCI  12
$$
MNZ037-044-045-052-053-242300-
   East Central Minnesota

CITY           SKY/WX    TMP DP  RH WIND       PRES   REMARKS
PRINCETON      LGT SNOW  27  21  80 NE6       29.78F VSB 1   WCI  20
CAMBRIDGE      LGT SNOW  28  23  80 CALM      29.79F VSB 3/4
RUSH CITY      CLOUDY    30  22  73 NE7       29.80F WCI  23
MOOSE LAKE     CLOUDY    28  16  59 NE6       29.81F WCI  22
HINCKLEY       MOCLDY    32  21  64 E6        29.83F WCI  26
CLOQUET        PTSUNNY   25  14  63 E7        29.85F WCI  17
MCGREGOR       CLOUDY    28  12  50 E6        29.83F WCI  22
$$
MNZ071>073-080-081-089-090-097-098-242300-
   Southwest Minnesota

CITY           SKY/WX    TMP DP  RH WIND       PRES   REMARKS
MONTEVIDEO     LGT SNOW  23  21  93 SE9       29.68F VSB 3/4 WCI  13
GRANITE FALLS  SNOW      23  22  94 E7        29.70F VSB 1/2 WCI  15
CANBY          LGT SNOW  14  10  85 NW7       29.70F VSB 1   WCI   4
MARSHALL       SNOW      19  14  81 S6        29.69F VSB 1/2 WCI  11
REDWOOD FALLS  LGT SNOW  22  20  92 E10       29.68F VSB 3/4 WCI  11
OLIVIA         SNOW      27  23  86 E13       29.68F VSB 1/2 WCI  16
PIPESTONE      LGT SNOW  18  16  93 SE7       29.63F WCI   8
WORTHINGTON    LGT SNOW  20  16  84 E5        29.64F VSB 3/4 WCI  13
JACKSON        LGT SNOW  19  18  93 E7        29.65F WCI  10
TRACY          LGT SNOW  17  15  94 SE8       29.65F VSB 3/4 WCI   6
SLAYTON        SNOW      17  15  94 SE6       29.64F VSB 1/2 WCI   8
$$
MNZ065>067-074>077-082>085-091>093-242300-
   South Central Minnesota

CITY           SKY/WX    TMP DP  RH WIND       PRES   REMARKS
MANKATO        SNOW      27  24  89 NE8       29.69F VSB 1/2 WCI  19
NEW ULM        SNOW      21  19  93 E9        29.69F VSB 1/4 WCI  11
ST JAMES       SNOW      25  21  86 NE5       29.69F VSB 1/2 WCI  19
FAIRMONT       LGT SNOW  24  21  88 NW6       29.68F VSB 3/4 WCI  17
GLENCOE        SNOW      26  26 100 NE10      29.69F VSB 1/4 WCI  17
FARIBAULT      LGT SNOW  27  25  93 NE10G16   29.67F VSB 3/4 WCI  17
OWATONNA       LGT SNOW  28  27  93 E13G18    29.65F WCI  18
WASECA         LGT SNOW  28  27  93 NE9       29.67F VSB 1   WCI  20
ALBERT LEA     MIX PCPN  30  30 100 SE6       29.65R VSB 3/4 WCI  24
$$
MNZ078>079-086>088-094>096-242300-
   Southeast Minnesota

CITY           SKY/WX    TMP DP  RH WIND       PRES   REMARKS
ROCHESTER      CLOUDY    29  27  92 E21       29.63F FOG     WCI  16
RED WING       LGT SNOW  30  25  80 E12G18    29.71F VSB 3/4 WCI  21
STANTON        LGT SNOW  28  24  88 NE13      29.67F VSB 1   WCI  17
DODGE CENTER   CLOUDY    28  27  93 E16G23    29.63F FOG     WCI  17
WINONA         CLOUDY    34  30  86 E12G20    29.72F WCI  25
AUSTIN         CLOUDY    30  28  93 E17G24    29.62F FOG     WCI  18
PRESTON        CLOUDY    30  28  91 E15       29.65F FOG     WCI  19
$$
ABBREVIATIONS USED IN REMARKS
   TC - TEMPERATURES IN CELSIUS
  WCI - WIND CHILL INDEX
   HX - HEAT INDEX
  VSB - VISIBILITY
$$




USA.gov is the U.S. government's official web portal to all federal, state and local government web resources and services.